FW6242 Weather Reports


time (UTC)temp
C
wind
direction
speed
KPH
gust
KPH
rain 1hr
cm
rain 24hr
cm
rain mn
cm
humidity
%
barometer
mb
20260505235506 17 0 0.0 0.0 0.00 0.00 0.00 95 1010.9
20260505234955 17 0 0.0 0.0 0.00 0.00 0.00 95 1010.7
20260505234445 17 0 0.0 0.0 0.00 0.00 0.00 95 1010.4
20260505233935 18 0 0.0 0.0 0.00 0.00 0.00 95 1010.5
20260505232915 17 0 0.0 0.0 0.00 0.00 0.00 95 1010.2
20260505231854 18 0 0.0 0.0 0.00 0.00 0.00 95 1010.2
20260505231345 18 0 0.0 0.0 0.00 0.00 0.00 95 1010.2
20260505230835 18 0 0.0 0.0 0.00 0.00 0.00 95 1010.1
20260505225815 18 0 0.0 0.0 0.00 0.00 0.00 95 1010.3
20260505224754 18 0 0.0 0.0 0.00 0.00 0.00 95 1010.3
20260505224244 18 0 0.0 0.0 0.00 0.00 0.00 95 1010.4
20260505223224 18 0 0.0 0.0 0.00 0.00 0.00 94 1010.5
20260505222715 18 0 0.0 0.0 0.00 0.00 0.00 94 1010.3
20260505222204 19 0 0.0 0.0 0.00 0.00 0.00 94 1010.3
20260505221648 19 0.0 0.0 0.00 0.00 0.00 94
20260505215305 20 0 0.0 0.0 0.00 0.00 0.00 92 1010.0
20260505214755 20 0 0.0 0.0 0.00 0.00 0.00 92 1010.1
20260505214245 20 0 0.0 0.0 0.00 0.00 0.00 91 1010.3
20260505213736 20 0 0.0 0.0 0.00 0.00 0.00 91 1010.4
20260505213224 20 0 0.0 0.0 0.00 0.00 0.00 91 1010.4
20260505212714 20 0 0.0 0.0 0.00 0.00 0.00 91 1010.2
20260505211805 20 0 0.0 0.0 0.00 0.00 0.00 91 1010.3
20260505211255 20 0 0.0 0.0 0.00 0.00 0.00 91 1010.0
20260505210745 20 0 0.0 0.0 0.00 0.00 0.00 91 1010.2
20260505210235 20 0 0.0 0.0 0.00 0.00 0.00 91 1010.2
20260505205724 20 0 0.0 0.0 0.00 0.00 0.00 91 1010.1
20260505205214 21 0 0.0 0.0 0.00 0.00 0.00 91 1010.1
20260505204704 21 0 0.0 0.0 0.00 0.00 0.00 91 1009.8
20260505203755 21 0 0.0 0.0 0.00 0.00 0.00 90 1010.0
20260505203245 21 0 0.0 0.0 0.00 0.00 0.00 90 1010.2
20260505202736 21 0 0.0 0.0 0.00 0.00 0.00 90 1010.2
20260505202225 21 0 0.0 0.0 0.00 0.00 0.00 90 1010.0
20260505201714 21 0 0.0 0.0 0.00 0.00 0.00 90 1010.2
20260505201204 21 0 0.0 0.0 0.00 0.00 0.00 90 1010.1
20260505200144 21 0 0.0 3.2 0.00 0.00 0.00 91 1010.1
20260505195633 20 0 0.0 3.2 0.00 0.00 0.00 91 1010.4
20260505195123 20 0 0.0 3.2 0.00 0.00 0.00 91 1010.1
20260505193553 20 0 0.0 3.2 0.00 0.00 0.00 91 1010.2
20260505193047 20 0 0.0 3.2 0.00 0.00 0.00 91 1010.3
20260505192533 20 0 0.0 4.8 0.00 0.00 0.00 91 1010.3
20260505192024 20 0 0.0 4.8 0.00 0.00 0.00 91 1010.2
20260505191002 20 0 1.6 6.4 0.00 0.00 0.00 91 1010.2
20260505185943 20 0 1.6 6.4 0.00 0.00 0.00 92 1010.4
20260505185431 20 0 1.6 6.4 0.00 0.00 0.00 92 1010.4
20260505184922 20 0 0.0 4.8 0.00 0.00 0.00 92 1010.2
20260505184412 20 0 0.0 6.4 0.00 0.00 0.00 92 1010.4
20260505183902 20 0 0.0 8.0 0.00 0.00 0.00 92 1010.5
20260505183351 20 0 0.0 8.0 0.00 0.00 0.00 93 1010.5
20260505182842 20 0 3.2 8.0 0.00 0.00 0.00 93 1010.3
20260505182332 20 0 1.6 6.4 0.00 0.00 0.00 93 1010.3
20260505181821 20 0 3.2 6.4 0.00 0.00 0.00 93 1010.7
20260505181311 20 0 0.0 6.4 0.00 0.00 0.00 93 1010.8
20260505180251 20 0 1.6 4.8 0.00 0.00 0.00 93 1010.9
20260505175735 20 0.0 0.0 0.00 0.00 0.00 94
20260505170324 19 0 0.0 0.0 0.00 0.00 0.00 95 1011.4
20260505165306 19 0 0.0 0.0 0.00 0.00 0.00 95 1011.3
20260505164755 19 0 0.0 0.0 0.00 0.00 0.00 95 1011.6
20260505164243 19 0 0.0 0.0 0.00 0.00 0.00 95 1011.3
20260505162945 19 0 0.0 0.0 0.00 0.00 0.00 95 1011.5
20260505161924 19 0 0.0 0.0 0.00 0.00 0.00 95 1011.4
20260505161414 19 0 0.0 3.2 0.00 0.00 0.00 95 1011.7
20260505160353 19 0 0.0 3.2 0.00 0.00 0.00 95 1011.4
20260505152715 18 0 0.0 0.0 0.00 0.00 0.00 94 1011.6
20260505151654 18 0 0.0 0.0 0.00 0.00 0.00 94 1011.6
20260505150634 18 0 0.0 0.0 0.00 0.00 0.00 95 1011.8
20260505150124 18 0 0.0 1.6 0.00 0.00 0.00 94 1011.9
20260505140434 16 0 0.0 0.0 0.00 0.00 0.00 95 1012.1
20260505130232 15 0 0.0 0.0 0.00 0.00 0.00 95 1012.1
20260505124702 15 0 0.0 0.0 0.00 0.00 0.00 95 1011.9
20260505124151 15 0 0.0 0.0 0.00 0.00 0.00 95 1012.3
20260505123641 15 0 0.0 0.0 0.00 0.00 0.00 95 1012.0
20260505123131 15 0 0.0 0.0 0.00 0.00 0.00 95 1012.0
20260505122621 14 0 0.0 0.0 0.00 0.00 0.00 95 1011.9
20260505121600 14 0 0.0 0.0 0.00 0.00 0.00 95 1011.7
20260505121050 14 0 0.0 0.0 0.00 0.00 0.00 95 1011.9
20260505120030 13 0 0.0 0.0 0.00 0.00 0.00 95 1011.9
20260505115521 13 0 0.0 0.0 0.00 0.00 0.00 95 1011.8
20260505115023 13 0 0.0 4.8 0.00 0.00 0.00 95 1011.6
20260505113951 13 0 3.2 4.8 0.00 0.00 0.00 95 1011.7
20260505113440 13 0 3.2 4.8 0.00 0.00 0.00 95 1011.7
20260505112925 13 0.0 0.0 0.00 0.00 0.00 95
20260505111826 13 0 0.0 0.0 0.00 0.00 0.00 95 1011.2
20260505111316 13 0 0.0 0.0 0.00 0.00 0.00 95 1011.4
20260505110806 13 0 0.0 0.0 0.00 0.00 0.00 95 1011.2
20260505110257 13 0 0.0 0.0 0.00 0.00 0.00 95 1011.3
20260505102135 13 0 0.0 0.0 0.00 0.00 0.00 95 1010.4
20260505101115 13 0 0.0 0.0 0.00 0.00 0.00 95 1010.8
20260505100605 13 0 0.0 0.0 0.00 0.00 0.00 95 1010.5
20260505100057 13 0 0.0 0.0 0.00 0.00 0.00 95 1010.4
20260505095033 13 0 0.0 0.0 0.00 0.00 0.00 95 1010.4
20260505094525 12 0 0.0 3.2 0.00 0.00 0.00 95 1010.2
20260505094021 12 0 0.0 3.2 0.00 0.00 0.00 95 1009.9
20260505093504 12 0 0.0 6.4 0.00 0.00 0.00 95 1010.1
20260505092955 12 0 1.6 6.4 0.00 0.00 0.00 95 1009.9
20260505092444 12 0 0.0 0.0 0.00 0.00 0.00 95 1009.8
20260505091935 12 0 0.0 0.0 0.00 0.00 0.00 95 1009.7
20260505091424 12 0 0.0 0.0 0.00 0.00 0.00 95 1009.6
20260505090404 12 0 0.0 0.0 0.00 0.00 0.00 95 1009.7
20260505085854 12 0 0.0 0.0 0.00 0.00 0.00 95 1009.6
20260505084834 12 0 0.0 0.0 0.00 0.00 0.00 95 1009.9
20260505084324 12 0 0.0 0.0 0.00 0.00 0.00 95 1009.7
20260505083813 12 0 0.0 0.0 0.00 0.00 0.00 95 1009.7
20260505083303 12 0 0.0 0.0 0.00 0.00 0.00 95 1009.9
20260505082243 12 0 0.0 0.0 0.00 0.00 0.00 95 1009.8
20260505081734 12 0 0.0 0.0 0.00 0.00 0.00 95 1009.8
20260505081223 12 0 0.0 0.0 0.00 0.00 0.00 95 1009.9
20260505080713 12 0 0.0 0.0 0.00 0.00 0.00 95 1009.7
20260505075652 11 0 0.0 0.0 0.00 0.00 0.00 95 1009.8
20260505075143 12 0 0.0 0.0 0.00 0.00 0.00 95 1009.8
20260505074632 12 0 0.0 0.0 0.00 0.00 0.00 95 1009.8
20260505074122 12 0 0.0 0.0 0.00 0.00 0.00 95 1009.6
20260505073612 12 0 0.0 0.0 0.00 0.00 0.00 95 1009.8
20260505073102 12 0 0.0 0.0 0.00 0.00 0.00 95 1009.9
20260505072551 12 0 0.0 0.0 0.00 0.00 0.00 95 1009.9
20260505071022 12 0 0.0 0.0 0.00 0.00 0.00 95 1009.8
20260505070512 11 0 0.0 0.0 0.00 0.00 0.00 95 1009.8
20260505070001 11 0 0.0 0.0 0.00 0.00 0.00 95 1009.9
20260505065451 11 0 0.0 0.0 0.00 0.00 0.00 95 1009.8
20260505064941 11 0 0.0 0.0 0.00 0.00 0.00 95 1010.0
20260505064431 11 0 0.0 0.0 0.00 0.00 0.00 94 1010.0
20260505063920 12 0 0.0 0.0 0.00 0.00 0.00 95 1009.9
20260505063411 11 0 0.0 0.0 0.00 0.00 0.00 95 1009.9
20260505062900 11 0 0.0 0.0 0.00 0.00 0.00 94 1010.0
20260505062351 11 0 0.0 0.0 0.00 0.00 0.00 94 1010.2
20260505061843 11 0 0.0 0.0 0.00 0.00 0.00 94 1010.1
20260505061330 11 0 0.0 0.0 0.00 0.00 0.00 94 1010.1
20260505055940 12 0 0.0 4.8 0.00 0.00 0.00 94 1010.3
20260505055430 11 0 1.6 6.4 0.00 0.00 0.00 94 1010.5
20260505054920 11 0 3.2 6.4 0.00 0.00 0.00 93 1010.5
20260505053900 11 0 4.8 6.4 0.00 0.00 0.00 93 1010.1
20260505053349 12 0 3.2 6.4 0.00 0.00 0.00 93 1009.9
20260505052840 12 0 3.2 6.4 0.00 0.00 0.00 93 1010.1
20260505052329 12 0 3.2 6.4 0.00 0.00 0.00 93 1009.9
20260505051310 12 0 3.2 4.8 0.00 0.00 0.00 93 1009.9
20260505050250 11 0 1.6 6.4 0.00 0.00 0.00 93 1009.9
20260505041618 13 0 0.0 4.8 0.00 0.00 0.00 91 1009.4
20260505041108 13 0 0.0 3.2 0.00 0.00 0.00 91 1009.6
20260505040557 12 0 0.0 3.2 0.00 0.00 0.00 92 1009.5
20260505040045 11 0 0.0 0.0 0.00 0.00 0.00 92 1009.9
20260505035537 11 0 0.0 0.0 0.00 0.00 0.00 91 1010.0
20260505035027 12 0 0.0 0.0 0.00 0.00 0.00 91 1010.0
20260505034518 12 0 0.0 0.0 0.00 0.00 0.00 91 1010.2
20260505034022 12 0 0.0 0.0 0.00 0.00 0.00 91 1010.3
20260505033457 12 0 0.0 1.6 0.00 0.00 0.00 91 1010.3
20260505032946 12 0 0.0 1.6 0.00 0.00 0.00 91 1010.1
20260505032437 12 0 0.0 0.0 0.00 0.00 0.00 91 1010.1
20260505031927 12 0 0.0 0.0 0.00 0.00 0.00 91 1010.2
20260505031416 12 0 0.0 0.0 0.00 0.00 0.00 91 1010.0
20260505030357 12 0 0.0 0.0 0.00 0.00 0.00 91 1009.7
20260505025846 12 0 0.0 0.0 0.00 0.00 0.00 91 1009.8
20260505025336 12 0 0.0 0.0 0.00 0.00 0.00 90 1010.3
20260505024826 12 0 0.0 0.0 0.00 0.00 0.00 90 1009.9
20260505024315 12 0 0.0 3.2 0.00 0.00 0.00 90 1009.8
20260505023806 12 0 0.0 3.2 0.00 0.00 0.00 90 1009.9
20260505023255 12 0 0.0 3.2 0.00 0.00 0.00 90 1009.9
20260505022746 12 0 0.0 4.8 0.00 0.00 0.00 89 1009.6
20260505022235 12 0 0.0 4.8 0.00 0.00 0.00 89 1009.9
20260505021726 12 0 3.2 4.8 0.00 0.00 0.00 88 1009.6
20260505021215 13 0 3.2 6.4 0.00 0.00 0.00 88 1009.6
20260505020706 13 0 3.2 6.4 0.00 0.00 0.00 88 1009.5
20260505020156 13 0 3.2 6.4 0.00 0.00 0.00 88 1009.5
20260505015645 13 0 0.0 6.4 0.00 0.00 0.00 87 1009.4
20260505015135 14 0 3.2 6.4 0.00 0.00 0.00 87 1009.6
20260505014625 14 0 3.2 8.0 0.00 0.00 0.00 86 1009.5
20260505014115 15 0 3.2 8.0 0.00 0.00 0.00 86 1009.6
20260505013605 15 0 6.4 8.0 0.00 0.00 0.00 85 1009.6
20260505013055 15 0 6.4 8.0 0.00 0.00 0.00 85 1009.6
20260505012544 15 0 4.8 6.4 0.00 0.00 0.00 85 1009.8
20260505012039 15 0 3.2 6.4 0.00 0.00 0.00 85 1009.3
20260505011524 15 0 3.2 8.0 0.00 0.00 0.00 85 1009.4
20260505011023 15 0 3.2 8.0 0.00 0.00 0.00 85 1009.0
20260505005954 15 0 4.8 8.0 0.00 0.00 0.00 85 1009.0
20260505005443 15 0 4.8 8.0 0.00 0.00 0.00 85 1008.9
20260505004934 15 0 4.8 6.4 0.00 0.00 0.00 85 1008.9
20260505004423 15 0 3.2 6.4 0.00 0.00 0.00 85 1008.8
20260505003914 15 0 3.2 6.4 0.00 0.00 0.00 85 1008.9
20260505003403 15 0 3.2 6.4 0.00 0.00 0.00 84 1008.8
20260505002852 15 0 3.2 6.4 0.00 0.00 0.00 84 1008.9
20260505002343 15 0 3.2 6.4 0.00 0.00 0.00 84 1008.8
20260505001322 15 0 3.2 6.4 0.00 0.00 0.00 83 1008.3
20260505000812 15 0 3.2 6.4 0.00 0.00 0.00 84 1008.5
20260504235752 15 0 3.2 6.4 0.00 0.00 0.00 84 1008.4